This is the latest recevied weather packets stored in our database for station/object SQ9MHX-13. If no packets are shown the sender has not sent any weather packets the latest 1 day(s).
| Time | Temp. | Humidity | Pressure | Rain* | Wind** | Luminosity | Snow |
|---|---|---|---|---|---|---|---|
| 1777988542 | 25° C | 23% | 942.1 hPa | - | 0 m/s | - | - |
| 1777987645 | 26.11° C | 22% | 940.9 hPa | - | 0 m/s | - | - |
| 1777987046 | 26.11° C | 22% | 941 hPa | - | 0 m/s | - | - |
| 1777986447 | 26.11° C | 22% | 940.6 hPa | - | 0 m/s | - | - |
| 1777986148 | 26.11° C | 22% | 939.5 hPa | - | 0 m/s | - | - |
| 1777985848 | 27.22° C | 24% | 939 hPa | - | 0 m/s | - | - |
| 1777985549 | 27.22° C | 25% | 939.6 hPa | - | 0 m/s | - | - |
| 1777985250 | 27.22° C | 21% | 939.8 hPa | - | 0 m/s | - | - |
| 1777984351 | 27.22° C | 24% | 939 hPa | - | 0 m/s | - | - |
| 1777983453 | 26.11° C | 21% | 940.5 hPa | - | 0 m/s | - | - |
| 1777983154 | 27.22° C | 24% | 941 hPa | - | 0 m/s | - | - |
| 1777982555 | 25° C | 25% | 941.4 hPa | - | 0 m/s | - | - |
| 1777981657 | 26.11° C | 20% | 939.6 hPa | - | 0 m/s | - | - |
| 1777981058 | 27.22° C | 24% | 940.2 hPa | - | 0 m/s | - | - |
| 1777980759 | 27.22° C | 24% | 940.8 hPa | - | 0 m/s | - | - |
| 1777979861 | 25° C | 23% | 942.7 hPa | - | 0 m/s | - | - |
| 1777979562 | 25° C | 21% | 942.1 hPa | - | 0 m/s | - | - |
| 1777979262 | 26.11° C | 22% | 941.4 hPa | - | 0 m/s | - | - |
| 1777978963 | 26.11° C | 24% | 942 hPa | - | 0 m/s | - | - |
| 1777978806 | 26.11° C | 23% | 942.3 hPa | - | 0 m/s | - | - |
| 1777978663 | 26.11° C | 23% | 942.3 hPa | - | 0 m/s | - | - |
| 1777978365 | 25° C | 21% | 942.6 hPa | - | 0 m/s | - | - |
| 1777978065 | 25° C | 24% | 943.2 hPa | - | 0 m/s | - | - |
| 1777977167 | 25° C | 25% | 943.6 hPa | - | 0 m/s | - | - |
| 1777976867 | 26.11° C | 28% | 943.6 hPa | - | 0 m/s | - | - |
* Rain since midnight (hover to see other rain measurements)
** Current wind speed in m/s (hover to see current wind gust speed)